Location: Alsip
(41.6689°N, 87.7387°W)
Time: 13:18:17
(UTC+00:00)

ERS-2 - Pass Details

Date: 14 July 2020
Orbit: 493 x 499 km, 98.5° (Epoch: 04 August)

Event Time Altitude Azimuth Distance (km) Brightness Sun altitude
Rises 08:46:01 0° 145° (SE) 2,568 5.6 -15.6°
Reaches altitude 10° 08:48:12 10° 136° (SE) 1,689 4.8 -15.4°
Maximum altitude 08:51:30 33° 70° (ENE) 843 3.9 -15.0°
Drops below altitude 10° 08:54:49 10° 5° (N) 1,700 5.6 -14.5°
Sets 08:57:01 0° 356° (N) 2,586 6.4 -14.3°
